Wind_Speed
52 48 48 49 46 43 40 39 41 42 41 39 38 37 37 37 36 36 37 36 33 31 30 31 27 25 28 28 27 27 27 29 32 33 32 30 29 29 29 31 32 32 33 35 35 35 36 38 39 39 40 40 41 42 42 41 40 43 47 48 49 52 55
54 49 53 53 47 44 42 41 44 44 42 40 41 41 39 39 39 39 39 38 36 34 33 34 32 30 32 33 32 31 30 29 31 33 34 34 32 32 33 33 34 34 35 36 37 37 38 39 40 41 42 43 43 43 42 42 43 47 49 49 51 55 57
56 52 56 54 46 44 43 44 46 46 43 43 43 42 42 42 42 41 42 41 39 38 35 35 35 34 36 37 38 37 34 32 31 32 34 35 34 34 34 35 36 36 37 38 38 39 39 40 41 42 44 44 44 44 44 45 47 48 49 50 53 56 58
58 54 55 53 46 44 46 46 48 47 45 46 45 45 45 45 44 43 44 44 42 40 38 36 36 36 37 40 42 42 40 38 35 33 35 37 36 35 35 36 37 38 39 39 39 40 40 41 42 43 45 45 46 46 47 48 50 50 51 53 55 57 57
59 54 53 53 49 47 48 49 49 48 48 49 49 48 46 46 46 45 46 47 44 41 40 39 38 39 40 42 42 42 43 44 41 38 39 40 39 38 37 38 39 40 41 41 41 42 42 43 43 44 46 47 47 48 49 50 51 52 54 55 58 58 57
57 54 53 55 54 52 51 52 50 49 51 52 52 50 47 47 48 47 49 49 45 42 41 41 42 43 44 44 43 42 43 45 46 43 41 42 42 41 39 39 41 42 42 43 44 44 44 45 45 46 47 48 49 50 51 52 53 54 56 57 59 58 57
56 54 56 58 59 57 54 53 52 51 52 53 53 52 49 49 50 50 52 51 46 43 44 44 45 47 47 46 45 45 44 45 46 47 44 43 43 43 42 42 43 44 45 46 46 45 46 47 48 48 48 50 51 51 52 53 54 56 58 60 62 60 60
61 60 61 60 61 60 56 53 53 53 53 52 53 54 53 53 53 52 54 53 48 46 46 46 48 50 50 48 47 46 46 44 45 48 48 46 44 45 46 45 46 47 47 48 48 47 48 49 49 50 51 51 52 53 53 54 56 59 61 63 64 62 59
67 63 62 59 59 60 58 56 55 54 55 53 54 58 58 56 54 54 56 55 51 49 48 48 52 54 53 51 48 47 47 45 46 49 49 48 47 46 46 47 48 49 49 50 50 49 49 50 51 52 53 53 54 54 54 55 57 60 62 65 66 61 54
71 64 63 62 60 59 58 58 59 58 57 56 57 61 61 58 56 56 58 57 53 51 51 52 54 56 57 55 50 47 47 47 48 50 49 48 49 48 47 47 48 49 50 51 51 51 51 51 51 53 54 54 55 55 55 56 58 61 63 66 66 59 53
74 67 65 66 63 61 59 59 62 62 60 59 61 63 63 60 58 57 58 58 55 53 54 55 56 57 59 58 53 50 49 49 51 53 52 49 49 50 50 49 48 48 50 51 51 51 52 52 52 53 54 55 55 55 55 56 58 61 63 65 65 60 59
76 71 69 68 66 64 61 60 62 63 63 62 62 63 63 63 61 59 59 60 58 55 56 58 59 60 60 59 57 54 53 52 53 53 53 51 50 51 51 51 50 49 49 51 52 53 53 53 53 53 53 54 56 55 56 58 59 60 62 65 66 63 63
78 74 73 71 68 66 64 63 63 64 64 64 64 64 64 64 63 63 63 63 60 57 58 60 61 62 62 59 58 55 55 57 57 54 53 53 53 53 53 53 53 51 50 51 52 54 55 54 54 54 54 54 55 56 58 59 59 59 61 64 64 61 60
79 77 75 73 70 69 68 66 66 67 67 66 66 66 66 66 66 66 67 66 63 60 61 62 63 64 63 61 58 56 56 59 61 58 55 54 54 54 54 54 55 54 52 52 53 54 57 57 56 55 54 54 56 57 58 56 57 59 60 59 59 58 57
79 78 76 74 73 72 71 69 69 71 70 69 68 66 67 69 69 70 70 69 66 64 63 64 65 64 62 60 59 58 58 61 63 62 59 56 56 56 54 54 55 55 54 54 55 55 57 59 58 57 56 56 57 55 53 53 55 58 58 56 55 56 60
78 75 74 74 74 74 74 73 74 74 73 72 70 68 70 72 72 74 74 71 68 67 67 67 66 63 60 59 59 60 62 64 64 63 61 59 59 59 57 54 54 55 56 57 56 55 57 59 59 58 58 58 56 51 50 54 57 58 58 58 57 58 60
75 72 73 75 77 78 78 77 77 77 77 76 74 73 73 75 76 78 77 74 71 70 71 70 67 63 60 59 59 60 63 66 64 63 63 61 61 62 60 57 55 54 56 58 58 57 56 58 59 59 59 59 58 54 55 60 59 53 52 55 56 55 51
74 73 75 79 81 81 79 77 78 80 80 77 75 76 77 79 80 80 78 76 74 74 74 72 67 63 62 62 62 62 64 65 64 63 63 62 62 62 61 60 58 55 55 58 59 58 57 57 59 60 60 60 61 59 59 60 55 48 50 56 54 48 45
76 76 79 82 81 79 76 75 78 80 79 77 77 80 82 82 81 81 80 79 78 78 76 72 68 66 66 66 65 65 66 67 66 64 63 63 64 63 62 61 60 57 56 57 58 58 57 57 58 60 61 64 65 62 58 54 49 47 52 54 47 42 47
78 79 81 82 79 76 75 76 79 80 79 80 82 85 85 84 83 83 82 81 80 78 76 73 71 71 71 69 67 66 69 72 69 64 64 66 66 63 62 62 61 59 58 58 58 58 56 56 58 60 62 67 67 63 59 55 51 51 51 45 41 44 49
80 80 83 83 79 77 75 76 79 80 80 82 86 87 86 85 85 85 84 82 79 78 77 74 73 73 73 72 70 70 74 75 71 67 67 68 66 64 63 63 63 61 60 59 58 57 55 55 55 55 58 61 62 61 60 55 52 54 52 46 47 50 52
82 83 85 84 81 78 76 77 80 80 80 84 88 87 84 83 85 87 87 84 81 79 78 76 75 74 74 74 74 75 77 76 72 70 69 68 68 68 67 65 64 63 62 60 59 56 53 48 44 46 53 57 58 58 56 50 48 51 52 53 58 62 66
85 85 86 85 82 78 77 78 80 80 80 83 87 86 84 82 84 86 87 85 82 80 79 78 77 75 74 76 77 77 77 75 73 71 70 68 69 70 70 68 66 64 63 62 59 57 53 45 38 40 48 53 53 52 49 46 46 47 48 53 61 68 75
85 85 85 84 82 80 78 79 79 79 80 83 84 83 81 80 82 85 86 86 85 84 82 81 79 77 77 79 79 79 77 76 74 74 72 69 68 69 70 69 67 65 65 64 62 60 58 52 45 45 51 55 54 51 49 49 49 50 53 58 61 66 71
86 85 84 84 83 82 80 80 80 81 81 82 82 80 78 78 81 84 85 85 85 85 84 83 80 79 78 77 76 77 78 76 75 76 75 71 68 68 69 70 68 67 67 66 64 63 61 57 52 50 54 60 63 63 64 64 63 66 70 70 70 71 73
85 85 85 84 83 83 81 78 77 78 80 81 81 79 79 80 81 81 81 81 82 82 83 82 79 77 76 75 75 76 77 77 76 77 76 72 68 67 67 68 68 67 67 67 66 65 64 62 60 58 58 62 66 68 71 73 74 76 77 74 73 76 79
84 84 85 84 84 84 81 78 76 78 79 79 80 80 79 81 82 81 80 81 79 78 78 77 76 76 77 78 79 78 78 77 76 74 73 71 69 68 67 67 68 69 68 66 64 65 65 65 65 64 63 64 67 70 73 75 76 78 79 78 79 84 88
85 85 86 86 86 84 83 82 81 80 79 77 78 79 74 71 74 76 76 77 76 76 76 76 77 78 80 81 81 79 78 77 74 72 72 72 72 71 71 70 70 69 67 65 63 64 67 68 67 66 66 67 69 72 75 77 78 80 82 84 87 90 91
84 86 86 85 81 79 81 83 83 81 78 75 76 77 72 67 69 72 72 74 76 78 80 81 81 82 82 81 80 78 76 75 76 75 75 75 74 75 75 73 71 69 68 67 67 68 69 69 68 69 71 72 72 73 75 78 81 83 85 87 88 87 86
81 83 84 84 81 76 77 83 84 82 79 77 76 78 78 78 78 77 76 77 79 80 81 83 83 82 81 80 79 79 78 78 80 80 79 77 76 75 76 75 74 72 71 70 70 70 71 71 73 75 75 73 73 74 76 79 80 82 83 85 84 81 79
73 69 70 76 79 75 73 77 80 80 79 79 79 80 81 83 84 83 83 83 82 82 83 83 82 82 81 80 80 81 79 78 79 80 80 79 79 79 79 79 78 76 75 73 72 71 71 72 75 75 74 73 72 73 74 76 77 78 80 82 82 79 78
77 72 69 71 73 72 72 74 76 76 76 77 79 79 80 81 83 84 85 84 82 81 81 81 80 80 80 79 79 78 78 77 78 80 81 81 82 82 82 82 80 77 75 72 70 69 69 70 71 71 71 71 70 69 70 72 73 75 78 82 83 82 82
83 83 82 79 76 75 75 76 75 74 73 74 76 77 78 78 78 80 81 81 81 81 80 80 81 82 81 80 79 79 79 80 81 81 82 81 81 81 80 79 77 75 72 71 71 71 71 72 72 72 71 69 68 71 75 77 78 79 81 83 83 82 84
84 84 84 82 79 76 75 76 77 76 75 75 76 77 78 78 79 79 80 80 79 80 80 80 81 81 81 80 79 78 79 80 80 80 80 79 78 77 77 76 76 76 76 76 76 76 76 76 77 76 75 72 72 74 76 75 75 77 78 79 81 85 89
83 82 81 80 79 76 75 76 79 80 79 78 78 76 75 76 78 80 81 81 81 82 81 79 78 79 80 80 79 78 78 79 79 79 78 77 77 77 78 79 79 79 79 78 77 76 76 76 76 76 74 72 71 73 74 74 76 79 82 85 90 94 96
80 80 80 79 79 78 76 77 80 82 82 82 81 78 74 75 77 80 81 81 82 82 83 82 82 82 82 82 81 80 80 80 80 79 78 77 77 78 79 78 77 77 76 76 76 76 75 75 74 74 73 72 74 78 82 84 86 89 92 94 96 97 97
82 81 80 79 79 79 79 79 80 79 77 76 77 76 75 75 76 76 75 74 75 75 77 79 80 80 80 81 82 81 81 81 81 80 79 77 76 76 76 75 75 76 77 77 77 77 77 75 74 74 74 75 79 83 86 87 90 92 94 96 97 98 98
Wind_Direction
252 253 254 253 252 253 253 255 258 259 259 261 262 262 261 263 264 266 267 268 270 272 273 275 275 278 280 281 282 284 284 288 294 297 299 301 303 304 304 303 305 306 307 309 311 313 314 315 315 315 317 320 322 322 322 320 319 319 321 322 324 327 328
250 250 251 252 252 253 254 254 256 258 260 261 262 262 262 263 263 263 264 266 268 268 270 273 276 278 279 280 279 278 279 283 288 293 297 299 302 304 304 304 305 305 306 306 308 311 313 313 314 315 316 319 322 322 321 320 320 318 318 318 320 322 325
250 249 251 255 256 256 256 255 256 258 260 261 261 263 263 262 262 263 265 265 265 267 268 271 274 276 279 282 281 280 280 281 283 287 292 295 298 300 301 302 303 303 304 306 308 309 310 311 312 313 314 317 320 321 320 320 320 319 316 317 319 319 321
250 250 253 258 258 257 256 255 256 258 260 261 261 261 262 263 264 264 265 265 265 266 267 268 271 273 276 278 279 282 284 284 284 286 288 290 293 296 297 299 300 302 303 304 306 307 308 309 309 310 312 314 317 319 319 319 319 318 316 316 317 317 318
249 251 254 258 257 255 255 255 255 257 259 260 260 260 261 264 265 265 266 266 266 266 267 268 269 270 271 273 275 279 283 285 285 285 287 289 291 292 295 297 299 300 301 302 304 305 306 307 308 309 310 312 315 317 317 317 317 316 315 315 316 316 316
249 252 254 255 255 253 253 253 253 254 256 257 259 260 262 265 266 266 266 266 266 268 269 269 269 268 269 270 271 274 276 280 283 283 284 286 288 289 292 294 296 297 298 299 301 303 304 306 307 308 310 312 314 315 315 316 315 315 315 315 315 315 314
247 248 250 252 254 253 252 253 255 255 255 257 259 260 261 262 264 266 266 266 267 268 269 269 269 269 268 268 269 271 271 275 280 282 281 281 285 288 289 291 293 294 295 296 298 300 303 304 306 308 309 310 311 313 315 314 314 315 315 314 314 313 312
246 245 246 249 253 256 256 255 257 257 258 258 259 260 259 259 261 264 266 267 267 268 268 270 271 270 269 268 268 270 272 274 279 281 282 282 284 286 289 290 291 292 293 294 296 299 301 303 305 306 307 308 310 312 313 314 314 315 315 314 313 314 313
249 247 249 250 252 257 260 260 258 258 259 259 260 260 259 258 259 261 264 266 267 268 269 270 271 271 270 269 269 270 272 273 275 277 280 282 283 284 286 289 291 292 292 294 296 298 299 301 302 304 306 308 310 312 313 314 314 314 314 314 313 314 314
251 249 250 251 250 251 255 258 259 258 257 258 259 259 260 260 260 260 262 265 266 268 269 269 270 271 271 270 270 271 273 274 275 275 275 278 281 282 283 285 288 290 292 294 296 297 298 299 301 303 305 307 310 311 313 314 314 314 315 314 312 312 312
252 250 250 251 251 250 250 253 256 257 258 258 258 260 262 262 262 262 264 265 265 265 267 269 269 270 271 272 272 271 271 273 276 277 277 278 279 282 284 284 286 288 291 293 294 295 297 298 300 302 304 307 309 311 312 313 313 314 316 314 312 311 311
252 252 251 251 252 252 251 251 254 257 259 259 260 262 264 265 265 265 265 264 264 263 265 267 268 268 269 271 273 274 274 274 274 276 279 281 281 282 283 285 286 288 290 293 294 295 296 298 300 302 304 306 308 310 311 312 312 314 315 313 311 310 312
251 251 251 252 252 252 252 252 253 255 258 260 261 262 263 265 266 265 265 264 264 264 265 266 266 267 268 269 271 274 277 278 276 275 277 279 281 283 284 285 286 288 290 293 295 296 296 298 300 301 303 306 307 309 311 311 312 313 313 310 308 309 313
250 251 251 252 252 252 252 253 253 255 256 257 259 261 263 263 264 264 264 265 265 264 265 266 266 267 268 270 272 274 275 277 278 277 276 277 279 281 283 286 288 289 290 291 293 295 297 298 299 301 303 305 308 311 311 310 310 312 311 309 308 309 311
250 251 252 252 252 252 253 253 253 254 255 256 257 260 262 263 263 263 263 263 264 264 264 265 265 267 269 272 274 274 274 274 275 277 278 279 280 280 281 284 287 290 291 292 293 295 297 298 300 302 304 306 310 312 310 306 305 306 305 305 305 306 308
251 253 254 254 253 252 252 252 252 253 254 255 256 257 258 260 262 263 263 263 264 264 264 264 265 267 270 273 274 275 275 274 275 277 279 280 280 281 281 282 285 288 290 291 293 295 296 298 300 302 305 308 310 308 302 299 300 299 298 301 301 303 307
254 254 254 253 252 250 250 250 252 253 253 254 255 256 257 259 260 261 263 264 265 265 265 266 268 271 273 274 274 274 274 275 276 278 279 279 280 281 282 283 283 285 288 290 292 294 295 297 300 303 305 307 306 303 301 301 300 297 297 300 299 300 303
253 253 251 251 250 251 252 253 253 253 254 255 256 257 257 258 259 261 263 265 265 266 266 268 271 274 275 274 274 273 274 275 276 277 278 279 279 280 281 282 283 284 286 288 290 292 294 296 300 303 305 303 301 303 305 304 300 298 302 304 299 291 286
252 251 251 251 252 254 257 258 256 254 255 256 256 257 257 257 259 260 262 263 264 266 268 270 272 272 272 272 273 275 276 275 275 276 279 280 279 281 282 283 284 284 284 285 287 290 293 297 301 303 303 301 301 303 305 302 297 296 302 306 297 280 271
251 251 252 253 255 256 257 257 256 255 255 255 255 255 256 258 259 260 262 263 265 267 268 270 270 271 271 272 274 275 275 274 275 277 279 279 280 282 284 284 285 285 285 286 288 291 295 298 301 302 302 302 301 300 300 296 290 288 292 291 278 265 263
250 251 252 253 254 254 255 255 255 255 255 255 255 256 258 260 261 262 262 263 265 267 268 270 270 271 273 273 273 273 273 274 277 278 278 279 281 282 283 284 285 286 287 288 289 292 296 299 302 305 306 304 300 300 301 298 289 284 282 274 265 262 264
248 249 251 252 253 254 254 254 254 255 255 255 256 257 258 260 262 263 264 264 265 266 268 269 270 270 272 272 272 272 272 274 277 278 279 280 281 282 282 282 284 286 287 288 289 291 292 297 305 309 306 301 297 300 304 300 289 282 276 268 266 268 270
248 249 251 253 254 254 253 253 254 255 255 255 257 258 258 260 261 263 264 265 265 265 266 267 268 269 270 270 271 271 273 275 277 277 277 279 281 283 283 283 284 285 286 286 287 287 286 288 294 294 290 287 288 293 298 292 283 280 276 270 268 268 270
248 250 252 253 254 253 252 252 253 253 254 255 256 258 259 259 260 261 263 264 265 265 265 266 267 268 268 270 271 273 274 275 275 276 276 278 280 282 283 284 285 285 284 284 285 285 284 283 282 278 275 275 276 277 280 277 274 274 276 276 274 271 271
247 248 250 252 253 253 252 252 252 253 254 256 257 258 259 258 258 260 262 264 265 266 266 266 267 268 270 271 271 272 273 273 275 277 278 279 279 280 281 283 283 283 283 284 284 285 284 283 280 275 272 272 270 270 273 275 274 274 277 278 277 274 273
247 248 249 250 251 252 252 252 253 254 254 256 257 258 258 258 258 260 262 263 265 267 268 268 268 269 269 269 268 270 272 275 277 278 279 279 279 279 280 281 281 281 282 284 285 284 283 283 280 275 270 268 268 270 272 275 275 276 277 277 276 276 277
245 246 247 248 249 250 251 252 252 253 254 255 256 257 258 259 260 260 261 262 264 266 268 269 269 268 268 268 270 272 274 276 277 278 279 280 279 278 278 278 280 281 283 284 284 283 283 282 281 278 275 272 271 272 274 275 275 275 275 275 275 277 280
245 245 246 248 249 250 251 251 251 252 253 255 256 257 257 258 259 261 262 262 262 264 265 266 266 267 269 271 272 274 275 276 276 276 276 277 278 278 278 278 280 281 283 283 283 283 284 283 281 280 279 278 277 277 277 277 277 277 277 277 276 277 279
244 245 246 247 248 249 250 250 251 252 252 253 254 256 255 255 257 261 262 261 261 261 262 263 264 266 268 271 272 274 275 275 275 275 274 275 276 277 277 278 278 279 280 282 282 283 283 282 281 281 282 283 282 281 281 281 281 280 279 277 277 278 278
244 246 248 248 248 249 250 251 251 252 252 251 252 253 254 255 258 259 259 260 261 262 263 264 265 267 268 270 271 271 272 273 273 274 274 274 274 274 275 276 277 277 278 279 280 281 281 280 281 283 285 285 284 282 282 282 281 279 277 275 275 277 278
239 242 246 247 247 248 249 250 251 251 252 252 252 253 254 255 257 258 259 261 262 263 264 265 266 267 268 269 269 270 271 272 272 272 273 273 273 274 275 276 277 277 278 278 278 279 279 279 281 283 284 285 284 282 281 280 278 276 273 273 274 276 277
237 237 239 242 245 246 249 251 251 251 251 252 252 253 254 255 256 258 259 260 261 262 263 264 266 267 267 267 268 268 269 270 271 272 273 274 275 276 276 276 277 278 278 278 278 278 278 279 281 283 284 284 283 279 277 275 274 273 273 274 276 278 279
238 238 240 242 244 246 249 251 252 251 251 251 251 252 253 254 256 257 259 261 262 262 263 264 265 266 267 267 267 268 269 269 270 271 272 273 275 276 277 277 278 278 278 279 279 280 280 280 281 281 282 282 281 278 275 273 271 272 274 277 278 280 283
238 239 241 243 244 245 246 247 248 249 249 250 251 252 253 254 256 258 260 262 262 262 263 264 265 266 267 267 268 269 270 270 270 270 271 272 274 275 276 277 278 279 279 280 280 281 281 281 281 280 280 279 278 276 274 272 271 272 274 276 278 281 285
239 240 241 242 242 242 242 245 247 248 248 250 250 251 253 255 257 258 259 260 261 261 262 263 264 265 267 268 269 269 270 270 271 272 273 274 275 276 277 278 279 280 281 281 281 281 282 281 281 281 280 279 276 272 271 271 273 275 276 278 281 285 287
238 239 240 240 241 240 241 243 246 248 250 251 251 252 253 254 256 258 259 260 261 262 263 264 264 265 266 268 269 269 270 271 272 274 274 275 276 276 277 278 279 281 282 282 283 283 283 282 282 282 281 279 275 273 273 275 277 279 281 283 285 287 288
238 239 239 240 241 242 243 245 248 250 251 252 252 252 253 253 255 257 259 261 262 263 264 265 265 266 267 268 270 270 271 273 274 275 275 275 276 276 277 278 280 281 282 282 282 282 281 280 280 280 279 278 276 277 278 280 281 282 284 285 287 288 289
Height
10948 10953 10953 10954 10957 10960 10964 10966 10966 10965 10965 10968 10970 10971 10972 10972 10973 10973 10972 10972 10974 10976 10976 10975 10978 10979 10978 10978 10978 10979 10978 10976 10973 10971 10971 10972 10973 10973 10971 10970 10969 10967 10966 10964 10963 10962 10960 10958 10956 10955 10954 10953 10951 10949 10947 10945 10943 10940 10937 10934 10932 10929 10926
10942 10948 10944 10945 10953 10956 10959 10962 10960 10959 10961 10963 10965 10965 10967 10968 10968 10968 10967 10968 10970 10971 10972 10971 10972 10974 10973 10973 10973 10974 10975 10975 10973 10971 10969 10968 10969 10968 10966 10965 10964 10963 10962 10961 10959 10958 10956 10954 10952 10950 10948 10948 10947 10946 10943 10941 10939 10936 10933 10931 10929 10925 10922
10936 10942 10937 10939 10950 10952 10954 10956 10953 10954 10956 10958 10960 10960 10961 10962 10962 10963 10963 10963 10965 10966 10968 10968 10968 10969 10968 10966 10965 10966 10969 10971 10971 10970 10967 10966 10965 10965 10963 10961 10960 10959 10958 10957 10956 10954 10952 10950 10949 10947 10945 10944 10944 10942 10940 10937 10934 10932 10929 10927 10925 10922 10918
10929 10936 10934 10936 10945 10948 10948 10949 10948 10949 10951 10952 10953 10955 10955 10956 10957 10958 10957 10957 10960 10962 10964 10965 10965 10965 10964 10961 10959 10959 10960 10962 10965 10966 10964 10962 10962 10962 10960 10959 10957 10955 10953 10953 10952 10951 10950 10948 10946 10944 10942 10941 10940 10939 10937 10934 10931 10928 10925 10923 10921 10918 10915
10924 10932 10934 10933 10937 10941 10941 10942 10943 10944 10945 10945 10946 10948 10950 10951 10951 10952 10951 10951 10955 10958 10959 10960 10960 10960 10959 10957 10956 10957 10955 10954 10957 10960 10958 10957 10957 10957 10956 10955 10953 10951 10949 10948 10947 10946 10946 10945 10943 10941 10939 10938 10937 10936 10933 10931 10928 10925 10922 10919 10917 10914 10911
10924 10929 10930 10926 10927 10933 10935 10934 10937 10939 10939 10938 10939 10941 10945 10945 10944 10945 10944 10945 10950 10954 10954 10955 10954 10954 10953 10952 10953 10955 10954 10951 10951 10954 10955 10953 10952 10952 10953 10952 10949 10947 10945 10944 10943 10943 10941 10941 10940 10938 10936 10935 10934 10932 10930 10927 10924 10921 10918 10915 10912 10910 10907
10923 10924 10922 10920 10918 10923 10928 10929 10931 10933 10933 10934 10934 10936 10940 10939 10938 10938 10936 10938 10945 10948 10949 10949 10948 10946 10946 10948 10949 10949 10950 10950 10948 10947 10949 10950 10948 10947 10948 10948 10946 10944 10942 10940 10940 10940 10938 10936 10935 10934 10933 10932 10931 10930 10927 10923 10920 10917 10913 10909 10906 10905 10902
10914 10915 10914 10917 10914 10914 10922 10925 10926 10926 10926 10929 10929 10929 10932 10933 10933 10933 10930 10932 10939 10941 10943 10943 10940 10938 10940 10942 10943 10943 10944 10947 10945 10942 10942 10944 10945 10943 10942 10942 10941 10939 10939 10937 10935 10936 10935 10933 10931 10930 10930 10929 10927 10926 10923 10919 10916 10911 10907 10903 10900 10899 10897
10901 10908 10909 10914 10915 10912 10915 10918 10920 10920 10920 10922 10923 10920 10922 10925 10928 10928 10925 10926 10932 10934 10936 10937 10933 10930 10932 10935 10938 10939 10940 10942 10941 10939 10938 10939 10940 10941 10940 10937 10935 10934 10933 10932 10931 10931 10931 10930 10928 10927 10926 10925 10923 10921 10918 10915 10911 10907 10901 10896 10892 10892 10891
10890 10903 10905 10907 10911 10912 10912 10910 10910 10912 10913 10915 10915 10912 10913 10918 10922 10921 10919 10921 10926 10928 10928 10928 10926 10924 10923 10927 10934 10936 10935 10936 10934 10933 10935 10936 10935 10936 10937 10936 10933 10930 10928 10927 10926 10926 10926 10926 10925 10923 10921 10920 10918 10916 10913 10910 10906 10901 10896 10889 10884 10884 10884
10881 10895 10898 10898 10901 10906 10909 10907 10902 10902 10906 10909 10907 10905 10907 10911 10913 10914 10913 10914 10919 10922 10921 10919 10919 10918 10916 10918 10925 10930 10931 10931 10929 10925 10928 10931 10931 10930 10930 10930 10931 10929 10926 10924 10923 10922 10921 10921 10921 10919 10917 10915 10914 10911 10909 10906 10900 10894 10890 10883 10877 10875 10875
10874 10884 10888 10890 10894 10897 10902 10904 10900 10897 10898 10901 10901 10901 10902 10902 10904 10907 10906 10905 10910 10915 10914 10913 10912 10911 10912 10914 10917 10921 10923 10924 10924 10922 10921 10923 10925 10925 10924 10923 10924 10925 10923 10920 10918 10917 10916 10916 10916 10915 10914 10911 10909 10906 10903 10900 10895 10889 10884 10877 10870 10868 10866
10867 10873 10877 10881 10887 10890 10892 10895 10895 10893 10893 10894 10896 10896 10896 10895 10896 10898 10896 10896 10901 10907 10907 10905 10905 10905 10907 10911 10914 10917 10917 10913 10914 10918 10918 10917 10918 10918 10917 10916 10917 10919 10919 10916 10913 10910 10909 10910 10910 10910 10910 10908 10904 10901 10897 10892 10888 10884 10878 10871 10865 10862 10859
10858 10864 10869 10874 10879 10881 10883 10887 10888 10888 10888 10889 10889 10889 10888 10888 10889 10889 10888 10888 10893 10898 10898 10897 10897 10899 10902 10905 10909 10913 10913 10907 10904 10907 10911 10912 10913 10913 10912 10911 10909 10911 10912 10911 10908 10906 10903 10902 10903 10904 10904 10902 10899 10895 10890 10885 10880 10876 10871 10865 10859 10856 10854
10851 10856 10861 10866 10870 10872 10875 10879 10880 10879 10881 10882 10883 10884 10881 10878 10879 10879 10879 10881 10886 10889 10891 10890 10890 10894 10898 10901 10903 10905 10906 10901 10897 10898 10902 10905 10906 10907 10908 10908 10905 10904 10904 10903 10902 10901 10896 10893 10894 10895 10895 10894 10892 10891 10887 10881 10874 10868 10864 10859 10854 10852 10850
10843 10850 10854 10857 10860 10863 10866 10868 10870 10871 10872 10873 10874 10876 10873 10870 10870 10869 10868 10873 10880 10882 10882 10883 10884 10890 10896 10898 10898 10898 10895 10892 10891 10893 10896 10898 10897 10897 10900 10904 10903 10900 10898 10896 10896 10895 10892 10888 10886 10887 10887 10886 10887 10888 10885 10877 10869 10863 10857 10852 10848 10848 10846
10838 10844 10846 10846 10847 10850 10854 10859 10863 10862 10861 10861 10864 10867 10866 10863 10861 10860 10860 10865 10872 10874 10874 10875 10880 10886 10890 10891 10892 10891 10885 10883 10885 10888 10888 10890 10891 10889 10891 10895 10897 10897 10894 10889 10888 10889 10888 10885 10882 10881 10881 10879 10878 10878 10876 10871 10865 10859 10853 10849 10845 10845 10844
10833 10836 10835 10833 10834 10839 10847 10854 10856 10852 10850 10854 10860 10861 10857 10854 10852 10853 10855 10858 10862 10864 10866 10871 10877 10881 10882 10881 10882 10881 10879 10877 10878 10881 10882 10883 10883 10883 10884 10886 10889 10892 10890 10885 10881 10882 10882 10882 10880 10878 10875 10871 10868 10869 10869 10865 10860 10855 10850 10846 10844 10844 10841
10823 10825 10823 10822 10827 10835 10844 10848 10846 10843 10845 10850 10852 10848 10844 10844 10845 10847 10849 10850 10853 10856 10861 10866 10871 10873 10873 10872 10872 10873 10871 10868 10870 10875 10876 10875 10875 10876 10877 10878 10879 10882 10883 10880 10877 10878 10879 10879 10877 10872 10867 10861 10859 10863 10865 10860 10854 10850 10846 10844 10842 10839 10832
10813 10815 10812 10815 10824 10832 10838 10839 10835 10835 10840 10841 10837 10833 10833 10836 10839 10839 10840 10843 10847 10850 10855 10859 10861 10862 10863 10865 10867 10866 10858 10856 10864 10872 10870 10867 10867 10869 10870 10869 10869 10872 10874 10873 10872 10874 10876 10875 10871 10867 10862 10855 10852 10855 10856 10855 10851 10846 10843 10842 10838 10830 10823
10805 10805 10803 10808 10818 10824 10828 10830 10827 10827 10831 10829 10823 10824 10828 10831 10831 10829 10830 10837 10842 10843 10846 10850 10852 10854 10854 10855 10858 10855 10848 10848 10858 10864 10863 10860 10861 10862 10862 10860 10860 10862 10865 10865 10866 10869 10870 10867 10863 10860 10856 10850 10845 10845 10846 10847 10846 10842 10837 10834 10829 10822 10816
10796 10796 10795 10800 10809 10816 10820 10820 10817 10818 10822 10817 10813 10817 10824 10826 10822 10818 10820 10828 10835 10837 10839 10842 10845 10847 10846 10845 10846 10844 10840 10844 10851 10854 10854 10854 10853 10852 10853 10853 10854 10855 10856 10857 10859 10861 10862 10862 10861 10857 10852 10846 10840 10840 10842 10842 10838 10833 10829 10826 10822 10816 10811
10788 10788 10789 10794 10802 10809 10812 10809 10806 10809 10811 10808 10804 10809 10818 10822 10816 10810 10812 10819 10825 10829 10831 10833 10837 10840 10839 10835 10835 10836 10836 10838 10842 10844 10847 10848 10845 10841 10841 10844 10848 10849 10848 10848 10849 10849 10851 10859 10863 10857 10849 10845 10842 10841 10843 10840 10831 10823 10819 10817 10814 10809 10804
10780 10781 10782 10786 10792 10799 10801 10799 10797 10798 10799 10799 10799 10803 10812 10817 10810 10803 10805 10808 10811 10816 10822 10826 10828 10830 10829 10827 10827 10828 10830 10831 10831 10832 10837 10843 10840 10834 10831 10834 10838 10839 10836 10836 10839 10839 10841 10850 10857 10852 10843 10839 10839 10837 10835 10831 10823 10816 10810 10807 10804 10801 10797
10771 10773 10774 10777 10781 10786 10789 10789 10789 10790 10790 10791 10795 10799 10804 10806 10800 10797 10799 10800 10800 10805 10812 10817 10820 10820 10820 10821 10820 10818 10818 10822 10823 10822 10826 10833 10834 10829 10826 10826 10827 10827 10825 10825 10828 10829 10830 10836 10843 10844 10839 10832 10829 10828 10825 10821 10816 10808 10801 10797 10793 10789 10786
10762 10764 10766 10769 10771 10773 10777 10778 10781 10785 10784 10785 10789 10793 10794 10794 10793 10794 10795 10794 10794 10797 10801 10806 10809 10810 10810 10810 10810 10809 10809 10813 10815 10814 10815 10821 10825 10823 10820 10817 10816 10816 10817 10818 10818 10818 10818 10821 10824 10828 10828 10823 10819 10818 10816 10812 10807 10800 10793 10788 10782 10776 10774
10752 10753 10755 10758 10760 10763 10769 10771 10773 10776 10776 10778 10782 10785 10785 10785 10786 10788 10789 10789 10791 10792 10792 10794 10797 10797 10797 10797 10799 10803 10804 10805 10806 10806 10806 10809 10811 10813 10812 10809 10807 10807 10808 10810 10810 10807 10806 10807 10807 10809 10811 10810 10808 10805 10802 10799 10796 10791 10786 10781 10775 10768 10765
10743 10745 10746 10749 10751 10756 10762 10764 10764 10766 10769 10771 10774 10776 10778 10778 10778 10779 10782 10784 10785 10785 10784 10785 10786 10785 10786 10787 10791 10795 10796 10795 10797 10798 10798 10798 10798 10800 10801 10801 10800 10799 10799 10800 10800 10797 10795 10794 10793 10793 10794 10793 10792 10789 10786 10784 10781 10778 10775 10770 10765 10761 10759
10734 10735 10738 10742 10746 10750 10753 10753 10754 10760 10765 10767 10767 10768 10770 10770 10770 10772 10773 10773 10774 10775 10775 10776 10777 10778 10780 10782 10784 10786 10787 10786 10786 10786 10788 10790 10790 10789 10789 10790 10792 10793 10792 10792 10790 10787 10785 10783 10780 10779 10778 10778 10776 10773 10769 10766 10764 10762 10759 10754 10750 10751 10751
10727 10728 10731 10735 10739 10741 10744 10745 10748 10755 10760 10761 10760 10760 10760 10760 10760 10763 10763 10762 10763 10766 10766 10767 10769 10772 10775 10777 10776 10777 10778 10778 10776 10774 10777 10781 10782 10781 10779 10778 10781 10784 10785 10783 10781 10778 10776 10773 10769 10767 10767 10766 10763 10759 10755 10752 10749 10746 10741 10736 10736 10739 10740
10722 10724 10725 10726 10729 10733 10736 10738 10742 10748 10751 10752 10751 10750 10749 10749 10750 10751 10753 10754 10756 10757 10757 10759 10763 10765 10767 10769 10768 10767 10769 10771 10767 10765 10766 10769 10771 10771 10770 10769 10770 10773 10773 10773 10772 10770 10767 10764 10761 10759 10758 10756 10752 10748 10744 10740 10737 10733 10727 10723 10725 10729 10730
10712 10716 10716 10716 10719 10723 10726 10729 10735 10740 10741 10740 10740 10739 10740 10740 10740 10741 10743 10746 10748 10749 10750 10752 10754 10756 10757 10760 10760 10759 10760 10761 10759 10756 10757 10758 10758 10759 10759 10758 10759 10761 10761 10761 10761 10760 10758 10756 10753 10751 10748 10745 10742 10738 10733 10729 10725 10721 10716 10713 10714 10717 10718
10701 10705 10706 10708 10712 10716 10719 10721 10725 10728 10729 10729 10729 10730 10731 10732 10732 10733 10735 10737 10738 10739 10741 10743 10745 10745 10747 10750 10752 10752 10751 10751 10751 10750 10749 10749 10748 10747 10747 10747 10748 10749 10751 10750 10749 10748 10748 10746 10744 10741 10739 10738 10734 10729 10722 10717 10713 10710 10707 10705 10704 10704 10705
10692 10696 10700 10702 10706 10709 10711 10712 10712 10715 10719 10720 10720 10721 10724 10725 10726 10727 10727 10728 10728 10727 10730 10734 10735 10734 10736 10739 10742 10743 10742 10740 10740 10740 10741 10741 10741 10739 10737 10737 10737 10738 10740 10740 10739 10738 10737 10735 10733 10731 10731 10731 10726 10717 10708 10704 10701 10699 10698 10697 10695 10694 10694
10686 10690 10693 10695 10697 10701 10704 10704 10702 10704 10708 10709 10710 10715 10720 10720 10719 10717 10716 10716 10716 10717 10721 10725 10727 10725 10725 10728 10732 10734 10732 10730 10729 10731 10733 10734 10733 10730 10728 10727 10726 10727 10728 10728 10728 10728 10726 10725 10723 10721 10720 10720 10714 10704 10696 10694 10692 10690 10688 10687 10686 10684 10685
10680 10682 10683 10686 10689 10692 10695 10694 10692 10694 10699 10701 10704 10711 10714 10711 10706 10705 10706 10707 10709 10710 10712 10715 10717 10717 10717 10718 10721 10723 10722 10720 10721 10723 10725 10726 10724 10720 10718 10718 10718 10718 10718 10717 10716 10715 10714 10713 10711 10709 10708 10706 10699 10690 10687 10687 10685 10681 10679 10678 10676 10674 10674
10672 10673 10675 10679 10681 10682 10685 10686 10686 10690 10694 10695 10697 10700 10702 10700 10698 10699 10701 10701 10702 10702 10703 10703 10705 10708 10710 10710 10711 10712 10712 10712 10712 10712 10713 10715 10714 10711 10711 10713 10712 10711 10709 10707 10705 10703 10702 10701 10700 10698 10696 10692 10685 10680 10679 10677 10673 10670 10669 10667 10664 10662 10661